�������l�o���
Date,Time,MP-1(��Sv/h),MP-2(��Sv/h),MP-3(��Sv/h),MP-4(��Sv/h),MP-5(��Sv/h),MP-6(��Sv/h),MP-7(��Sv/h),����,����(m/s),���J
2020/04/23,00:00,0.174,0.159,0.266,0.242,0.255,0.136,0.083,�k��,3.8,��
2020/04/23,00:10,0.174,0.161,0.268,0.242,0.255,0.138,0.083,�k��,4.9,��
2020/04/23,00:20,0.173,0.159,0.266,0.242,0.255,0.137,0.083,�k�k��,2.3,��
2020/04/23,00:30,0.174,0.158,0.267,0.242,0.256,0.137,0.083,�k�k��,4.0,��
2020/04/23,00:40,0.174,0.159,0.268,0.242,0.255,0.136,0.083,�k�k��,4.0,��
2020/04/23,00:50,0.173,0.159,0.267,0.242,0.256,0.136,0.083,�k��,2.5,��
2020/04/23,01:00,0.173,0.159,0.268,0.242,0.257,0.137,0.082,�k�k��,2.1,��
2020/04/23,01:10,0.174,0.159,0.267,0.242,0.255,0.137,0.084,�k,2.3,��
2020/04/23,01:20,0.173,0.160,0.267,0.244,0.256,0.136,0.083,���k��,5.3,��
2020/04/23,01:30,0.173,0.160,0.266,0.243,0.255,0.137,0.083,�k��,4.6,��
2020/04/23,01:40,0.175,0.159,0.266,0.243,0.255,0.136,0.083,�k��,3.3,��
2020/04/23,01:50,0.174,0.160,0.268,0.244,0.256,0.137,0.082,�k�k��,0.9,��
2020/04/23,02:00,0.173,0.159,0.267,0.242,0.255,0.137,0.083,���k��,1.1,��
2020/04/23,02:10,0.174,0.159,0.267,0.243,0.256,0.137,0.083,���k��,2.1,��
2020/04/23,02:20,0.174,0.158,0.266,0.242,0.256,0.137,0.084,�k��,1.6,��
2020/04/23,02:30,0.174,0.159,0.267,0.242,0.255,0.137,0.083,-,CALM,��
2020/04/23,02:40,0.173,0.160,0.267,0.241,0.256,0.136,0.083,�쓌,0.6,��
2020/04/23,02:50,0.174,0.159,0.267,0.242,0.255,0.137,0.084,���k��,1.1,��
2020/04/23,03:00,0.173,0.160,0.267,0.242,0.255,0.137,0.083,�k��,1.3,��
2020/04/23,03:10,0.173,0.160,0.267,0.242,0.256,0.138,0.083,���k��,1.5,��
2020/04/23,03:20,0.173,0.159,0.268,0.242,0.256,0.137,0.083,�k��,1.3,��
2020/04/23,03:30,0.173,0.161,0.269,0.243,0.256,0.136,0.083,��,2.0,��
2020/04/23,03:40,0.173,0.159,0.266,0.243,0.255,0.136,0.083,��,1.6,��
2020/04/23,03:50,0.173,0.159,0.266,0.242,0.256,0.137,0.084,��,1.8,��
2020/04/23,04:00,0.174,0.160,0.267,0.242,0.256,0.138,0.084,���쓌,1.5,��
2020/04/23,04:10,0.174,0.160,0.267,0.241,0.256,0.137,0.084,��쓌,1.5,��
2020/04/23,04:20,0.173,0.160,0.265,0.242,0.255,0.137,0.084,���쐼,1.2,��
2020/04/23,04:30,0.174,0.160,0.267,0.242,0.256,0.136,0.084,��,0.8,��
2020/04/23,04:40,0.173,0.159,0.267,0.242,0.256,0.137,0.084,-,CALM,��
2020/04/23,04:50,0.173,0.160,0.268,0.241,0.256,0.137,0.083,��쐼,0.7,��
2020/04/23,05:00,0.173,0.160,0.268,0.244,0.256,0.138,0.084,-,CALM,��
2020/04/23,05:10,0.173,0.160,0.267,0.242,0.255,0.137,0.082,-,CALM,��
2020/04/23,05:20,0.174,0.160,0.268,0.242,0.255,0.137,0.084,-,CALM,��
2020/04/23,05:30,0.174,0.160,0.265,0.242,0.257,0.137,0.083,�쓌,1.0,��
2020/04/23,05:40,0.173,0.159,0.267,0.242,0.254,0.137,0.083,�쓌,1.5,��
2020/04/23,05:50,0.173,0.160,0.266,0.242,0.255,0.138,0.083,�쓌,0.7,��
2020/04/23,06:00,0.174,0.159,0.266,0.241,0.255,0.137,0.083,��쐼,1.2,��
2020/04/23,06:10,0.173,0.159,0.266,0.243,0.256,0.137,0.083,��쐼,2.8,��
2020/04/23,06:20,0.174,0.159,0.266,0.242,0.256,0.137,0.083,�쐼,2.5,��
2020/04/23,06:30,0.174,0.159,0.268,0.243,0.255,0.137,0.082,-,CALM,��
2020/04/23,06:40,0.174,0.160,0.265,0.242,0.256,0.136,0.082,��쐼,1.2,��
2020/04/23,06:50,0.174,0.160,0.266,0.242,0.257,0.137,0.083,��쓌,1.4,��
2020/04/23,07:00,0.173,0.159,0.266,0.242,0.256,0.136,0.083,��,1.4,��
2020/04/23,07:10,0.175,0.160,0.266,0.241,0.256,0.137,0.083,��,1.0,��
2020/04/23,07:20,0.173,0.158,0.265,0.241,0.256,0.136,0.083,���쐼,1.3,��
2020/04/23,07:30,0.173,0.159,0.267,0.242,0.255,0.137,0.083,��,2.3,��
2020/04/23,07:40,0.174,0.158,0.265,0.240,0.256,0.136,0.084,�k��,1.3,��
2020/04/23,07:50,0.172,0.158,0.267,0.240,0.257,0.138,0.083,��,2.7,��
2020/04/23,08:00,0.173,0.159,0.264,0.239,0.255,0.137,0.083,���k��,3.8,��
2020/04/23,08:10,0.172,0.158,0.266,0.241,0.256,0.137,0.082,��,4.7,��
2020/04/23,08:20,0.173,0.159,0.265,0.240,0.256,0.137,0.083,��,3.0,��
2020/04/23,08:30,0.174,0.158,0.266,0.242,0.254,0.136,0.084,��,4.7,��
2020/04/23,08:40,0.173,0.159,0.266,0.238,0.258,0.135,0.083,���k��,3.2,��
2020/04/23,08:50,0.174,0.159,0.267,0.242,0.254,0.136,0.083,��,3.4,��
2020/04/23,09:00,0.173,0.159,0.268,0.241,0.257,0.136,0.083,��,2.5,��
2020/04/23,09:10,0.173,0.160,0.266,0.243,0.253,0.136,0.083,�쐼,4.0,��
2020/04/23,09:20,0.173,0.160,0.267,0.241,0.257,0.137,0.083,��쐼,5.1,��
2020/04/23,09:30,0.173,0.160,0.267,0.242,0.254,0.136,0.083,��쐼,2.7,��
2020/04/23,09:40,0.174,0.159,0.267,0.241,0.258,0.136,0.084,��쓌,3.5,��
2020/04/23,09:50,0.174,0.160,0.266,0.242,0.254,0.136,0.083,��,2.6,��
2020/04/23,10:00,0.174,0.160,0.268,0.242,0.256,0.136,0.083,��,5.4,��
2020/04/23,10:10,0.173,0.158,0.265,0.242,0.254,0.138,0.083,��,4.7,��
2020/04/23,10:20,0.175,0.157,0.268,0.240,0.258,0.137,0.084,��쐼,2.0,��
2020/04/23,10:30,0.173,-,0.267,0.243,0.256,0.137,0.083,��쓌,4.3,��
2020/04/23,10:40,0.175,-,0.269,0.241,0.256,0.136,0.084,��,5.2,��
2020/04/23,10:50,0.173,-,0.266,0.243,0.257,0.138,0.083,��쓌,5.2,��
2020/04/23,11:00,0.173,-,0.269,0.241,0.256,0.137,0.084,��쓌,6.0,��
2020/04/23,11:10,0.173,-,0.267,0.244,0.257,0.137,0.083,��,5.9,��
2020/04/23,11:20,0.174,-,0.268,0.242,0.257,0.138,0.084,��쓌,5.8,��
2020/04/23,11:30,0.173,-,0.268,0.243,0.257,0.137,0.083,��쓌,5.4,��
2020/04/23,11:40,0.173,-,0.267,0.243,0.257,0.138,0.083,��쓌,6.8,��
2020/04/23,11:50,0.173,-,0.267,0.244,0.256,0.138,0.084,��,6.2,��
2020/04/23,12:00,0.174,-,0.269,0.242,0.258,0.137,0.083,��쓌,5.1,��
2020/04/23,12:10,0.172,-,0.266,0.243,0.256,0.137,0.083,��쓌,6.3,��
2020/04/23,12:20,0.174,-,0.268,0.243,0.256,0.137,0.083,��쓌,6.3,��
2020/04/23,12:30,0.172,-,0.266,0.243,0.257,0.137,0.083,��쓌,5.6,��
2020/04/23,12:40,0.174,-,0.268,0.242,0.258,0.138,0.083,��쓌,6.6,��
2020/04/23,12:50,0.173,-,0.266,0.242,0.256,0.137,0.083,��쓌,7.7,��
2020/04/23,13:00,0.173,-,0.268,0.244,0.257,0.138,0.083,��쓌,6.3,��
2020/04/23,13:10,0.173,-,0.267,0.242,0.256,0.137,0.083,��쓌,6.1,��
2020/04/23,13:20,0.173,-,0.270,0.244,0.258,0.138,0.083,��쓌,5.7,��
2020/04/23,13:30,0.173,-,0.267,0.243,0.259,0.138,0.083,��쓌,5.5,��
2020/04/23,13:40,0.174,-,0.269,0.244,0.257,0.137,0.084,��쓌,5.0,��
2020/04/23,13:50,0.173,-,0.268,0.243,0.256,0.138,0.083,��쓌,5.1,��
2020/04/23,14:00,0.174,-,0.269,0.243,0.257,0.136,0.084,��쓌,5.6,��
2020/04/23,14:10,0.172,-,0.267,0.242,0.258,0.137,0.084,��쓌,6.4,��
2020/04/23,14:20,0.174,-,0.268,0.242,0.256,0.136,0.083,��쓌,6.5,��
2020/04/23,14:30,0.173,-,0.268,0.243,0.256,0.138,0.083,��쓌,6.6,��
2020/04/23,14:40,0.174,-,0.269,0.242,0.257,0.137,0.084,��쓌,5.5,��
2020/04/23,14:50,0.172,-,0.265,0.244,0.254,0.137,0.084,��쓌,5.9,��
2020/04/23,15:00,0.174,-,0.270,0.242,0.256,0.136,0.083,��쓌,5.2,��
2020/04/23,15:10,0.173,0.160,0.268,0.244,0.255,0.138,0.083,��쓌,5.7,��
2020/04/23,15:20,0.175,0.160,0.270,0.243,0.257,0.137,0.083,��,4.5,��
2020/04/23,15:30,0.173,0.160,0.268,0.244,0.256,0.137,0.083,��쓌,5.5,��
2020/04/23,15:40,0.173,0.159,0.268,0.242,0.258,0.138,0.084,��,5.0,��
2020/04/23,15:50,0.174,0.159,0.269,0.244,0.257,0.138,0.084,��쓌,4.5,��
2020/04/23,16:00,0.174,0.159,0.269,0.244,0.259,0.137,0.083,��쓌,4.1,��
2020/04/23,16:10,0.172,0.160,0.269,0.243,0.257,0.138,0.083,��쓌,3.9,��
2020/04/23,16:20,0.175,0.160,0.267,0.244,0.258,0.137,0.083,��쓌,2.4,��
2020/04/23,16:30,0.174,0.160,0.268,0.243,0.255,0.137,0.083,�k�k��,0.7,��
2020/04/23,16:40,0.174,0.161,0.266,0.244,0.257,0.136,0.084,-,CALM,��
2020/04/23,16:50,0.174,0.159,0.270,0.243,0.255,0.137,0.084,��,3.3,��
2020/04/23,17:00,0.173,0.160,0.267,0.244,0.258,0.138,0.083,���k��,3.3,��
2020/04/23,17:10,0.174,0.161,0.269,0.242,0.256,0.138,0.083,���k��,3.3,��
2020/04/23,17:20,0.174,0.160,0.269,0.244,0.257,0.137,0.084,���k��,3.4,��
2020/04/23,17:30,0.174,0.160,0.269,0.244,0.255,0.137,0.083,��,1.8,��
2020/04/23,17:40,0.173,0.161,0.271,0.243,0.258,0.138,0.084,���k��,1.1,��
2020/04/23,17:50,0.174,0.161,0.269,0.244,0.257,0.137,0.084,���k��,2.7,��
2020/04/23,18:00,0.175,0.161,0.269,0.244,0.258,0.138,0.083,�k��,4.2,��
2020/04/23,18:10,0.175,0.160,0.269,0.244,0.258,0.137,0.084,���k��,3.9,��
2020/04/23,18:20,0.175,0.160,0.268,0.245,0.258,0.138,0.083,���k��,4.9,��
2020/04/23,18:30,0.174,0.161,0.270,0.244,0.259,0.138,0.084,���k��,3.9,��
2020/04/23,18:40,0.175,0.161,0.270,0.244,0.257,0.138,0.084,���k��,4.4,��
2020/04/23,18:50,0.175,0.160,0.270,0.245,0.257,0.138,0.084,��,4.5,��
2020/04/23,19:00,0.173,0.160,0.271,0.246,0.257,0.138,0.083,��,4.5,��
2020/04/23,19:10,0.175,0.160,0.270,0.244,0.257,0.139,0.084,��,2.9,��
2020/04/23,19:20,0.174,0.160,0.269,0.245,0.257,0.139,0.084,���k��,2.1,��
2020/04/23,19:30,0.174,0.160,0.271,0.244,0.256,0.138,0.084,���k��,3.6,��
2020/04/23,19:40,0.174,0.160,0.269,0.244,0.255,0.138,0.084,���k��,6.5,��
2020/04/23,19:50,0.174,0.159,0.269,0.245,0.258,0.138,0.083,��,7.3,��
2020/04/23,20:00,0.175,0.161,0.269,0.245,0.258,0.138,0.084,���k��,7.7,��
2020/04/23,20:10,0.176,0.161,0.270,0.244,0.257,0.138,0.084,���k��,6.6,��
2020/04/23,20:20,0.174,0.160,0.269,0.245,0.257,0.137,0.083,���k��,5.9,��
2020/04/23,20:30,0.174,0.161,0.270,0.245,0.257,0.138,0.084,��,6.6,��
2020/04/23,20:40,0.175,0.160,0.271,0.245,0.256,0.138,0.083,��,6.1,��
2020/04/23,20:50,0.174,0.160,0.270,0.244,0.257,0.138,0.084,���k��,9.2,��
2020/04/23,21:00,0.175,0.160,0.269,0.245,0.257,0.139,0.084,���k��,11.7,��
2020/04/23,21:10,0.174,0.161,0.270,0.244,0.256,0.139,0.084,���k��,8.6,��
2020/04/23,21:20,0.175,0.160,0.271,0.244,0.258,0.138,0.083,���k��,7.0,��
2020/04/23,21:30,0.175,0.161,0.270,0.244,0.256,0.138,0.084,���k��,4.8,��
2020/04/23,21:40,0.174,0.160,0.270,0.245,0.257,0.137,0.084,���k��,3.9,��
2020/04/23,21:50,0.175,0.161,0.271,0.245,0.256,0.138,0.083,���k��,6.0,��
2020/04/23,22:00,0.175,0.160,0.270,0.244,0.258,0.138,0.084,���k��,8.7,��
2020/04/23,22:10,0.174,0.160,0.269,0.246,0.258,0.139,0.084,��,12.0,��
2020/04/23,22:20,0.175,0.160,0.269,0.245,0.257,0.138,0.083,��,12.0,��
2020/04/23,22:30,0.175,0.160,0.268,0.245,0.258,0.138,0.084,���k��,13.1,��
2020/04/23,22:40,0.174,0.160,0.269,0.244,0.258,0.138,0.083,���k��,13.5,��
2020/04/23,22:50,0.174,0.160,0.271,0.244,0.256,0.137,0.083,���k��,13.9,��
2020/04/23,23:00,0.175,0.160,0.269,0.245,0.256,0.138,0.084,���k��,13.4,��
2020/04/23,23:10,0.173,0.161,0.272,0.245,0.257,0.138,0.083,��,14.6,��
2020/04/23,23:20,0.174,0.160,0.270,0.245,0.257,0.139,0.083,���k��,14.2,��
2020/04/23,23:30,0.174,0.160,0.270,0.245,0.256,0.138,0.083,���k��,15.4,��
2020/04/23,23:40,0.175,0.160,0.270,0.245,0.257,0.138,0.084,���k��,15.8,��
2020/04/23,23:50,0.174,0.161,0.271,0.244,0.257,0.138,0.084,���k��,15.1,��
